Year,Month,Day,Hour,Minute,Value (Times are PST for temperature in C)
2015,09,29,00,00,11.20
2015,09,29,00,01,11.20
2015,09,29,00,02,11.20
2015,09,29,00,03,11.20
2015,09,29,00,04,11.20
2015,09,29,00,05,11.20
2015,09,29,00,06,11.10
2015,09,29,00,07,11.10
2015,09,29,00,08,11.10
2015,09,29,00,09,11.10
2015,09,29,00,10,11.10
2015,09,29,00,11,11.00
2015,09,29,00,12,11.00
2015,09,29,00,13,11.00
2015,09,29,00,14,10.90
2015,09,29,00,15,10.90
2015,09,29,00,16,10.80
2015,09,29,00,17,10.80
2015,09,29,00,18,10.80
2015,09,29,00,19,10.70
2015,09,29,00,20,10.70
2015,09,29,00,21,10.70
2015,09,29,00,22,10.70
2015,09,29,00,23,10.70
2015,09,29,00,24,10.70
2015,09,29,00,25,10.70
2015,09,29,00,26,10.70
2015,09,29,00,27,10.70
2015,09,29,00,28,10.80
2015,09,29,00,29,10.80
2015,09,29,00,30,10.80
2015,09,29,00,31,10.80
2015,09,29,00,32,10.80
2015,09,29,00,33,10.80
2015,09,29,00,34,10.90
2015,09,29,00,35,10.90
2015,09,29,00,36,10.90
2015,09,29,00,37,10.90
2015,09,29,00,38,10.90
2015,09,29,00,39,10.90
2015,09,29,00,40,10.90
2015,09,29,00,41,10.90
2015,09,29,00,42,11.00
2015,09,29,00,43,11.00
2015,09,29,00,44,11.00
2015,09,29,00,45,11.10
2015,09,29,00,46,11.10
2015,09,29,00,47,11.10
2015,09,29,00,48,11.20
2015,09,29,00,49,11.20
2015,09,29,00,50,11.20
2015,09,29,00,51,11.20
2015,09,29,00,52,11.30
2015,09,29,00,53,11.30
2015,09,29,00,54,11.30
2015,09,29,00,55,11.40
2015,09,29,00,56,11.40
2015,09,29,00,57,11.40
2015,09,29,00,58,11.40
2015,09,29,00,59,11.40
2015,09,29,01,00,11.40
2015,09,29,01,01,11.40
2015,09,29,01,02,11.40
2015,09,29,01,03,11.40
2015,09,29,01,04,11.40
2015,09,29,01,05,11.40
2015,09,29,01,06,11.40
2015,09,29,01,07,11.40
2015,09,29,01,08,11.40
2015,09,29,01,09,11.40
2015,09,29,01,10,11.40
2015,09,29,01,11,11.40
2015,09,29,01,12,11.40
2015,09,29,01,13,11.40
2015,09,29,01,14,11.30
2015,09,29,01,15,11.30
2015,09,29,01,16,11.30
2015,09,29,01,17,11.30
2015,09,29,01,18,11.20
2015,09,29,01,19,11.20
2015,09,29,01,20,11.20
2015,09,29,01,21,11.20
2015,09,29,01,22,11.20
2015,09,29,01,23,11.20
2015,09,29,01,24,11.10
2015,09,29,01,25,11.10
2015,09,29,01,26,11.00
2015,09,29,01,27,11.00
2015,09,29,01,28,11.00
2015,09,29,01,29,11.00
2015,09,29,01,30,11.00
2015,09,29,01,31,11.00
2015,09,29,01,32,10.90
2015,09,29,01,33,11.00
2015,09,29,01,34,10.90
2015,09,29,01,35,10.90
2015,09,29,01,36,10.90
2015,09,29,01,37,10.90
2015,09,29,01,38,10.90
2015,09,29,01,39,10.90
2015,09,29,01,40,10.90
2015,09,29,01,41,10.90
2015,09,29,01,42,10.90
2015,09,29,01,43,10.80
2015,09,29,01,44,10.80
2015,09,29,01,45,10.80
2015,09,29,01,46,10.70
2015,09,29,01,47,10.70
2015,09,29,01,48,10.70
2015,09,29,01,49,10.70
2015,09,29,01,50,10.60
2015,09,29,01,51,10.60
2015,09,29,01,52,10.60
2015,09,29,01,53,10.60
2015,09,29,01,54,10.60
2015,09,29,01,55,10.60
2015,09,29,01,56,10.60
2015,09,29,01,57,10.70
2015,09,29,01,58,10.70
2015,09,29,01,59,10.70
2015,09,29,02,00,10.70
2015,09,29,02,01,10.70
2015,09,29,02,02,10.70
2015,09,29,02,03,10.70
2015,09,29,02,04,10.60
2015,09,29,02,05,10.70
2015,09,29,02,06,10.70
2015,09,29,02,07,10.70
2015,09,29,02,08,10.70
2015,09,29,02,09,10.70
2015,09,29,02,10,10.70
2015,09,29,02,11,10.70
2015,09,29,02,12,10.70
2015,09,29,02,13,10.70
2015,09,29,02,14,10.70
2015,09,29,02,15,10.60
2015,09,29,02,16,10.60
2015,09,29,02,17,10.60
2015,09,29,02,18,10.60
2015,09,29,02,19,10.60
2015,09,29,02,20,10.60
2015,09,29,02,21,10.50
2015,09,29,02,22,10.50
2015,09,29,02,23,10.50
2015,09,29,02,24,10.40
2015,09,29,02,25,10.40
2015,09,29,02,26,10.40
2015,09,29,02,27,10.40
2015,09,29,02,28,10.40
2015,09,29,02,29,10.40
2015,09,29,02,30,10.40
2015,09,29,02,31,10.40
2015,09,29,02,32,10.40
2015,09,29,02,33,10.30
2015,09,29,02,34,10.30
2015,09,29,02,35,10.30
2015,09,29,02,36,10.30
2015,09,29,02,37,10.30
2015,09,29,02,38,10.30
2015,09,29,02,39,10.30
2015,09,29,02,40,10.30
2015,09,29,02,41,10.30
2015,09,29,02,42,10.30
2015,09,29,02,43,10.30
2015,09,29,02,44,10.30
2015,09,29,02,45,10.30
2015,09,29,02,46,10.30
2015,09,29,02,47,10.30
2015,09,29,02,48,10.30
2015,09,29,02,49,10.40
2015,09,29,02,50,10.40
2015,09,29,02,51,10.40
2015,09,29,02,52,10.40
2015,09,29,02,53,10.40
2015,09,29,02,54,10.40
2015,09,29,02,55,10.40
2015,09,29,02,56,10.40
2015,09,29,02,57,10.40
2015,09,29,02,58,10.40
2015,09,29,02,59,10.40
2015,09,29,03,00,10.40
2015,09,29,03,01,10.40
2015,09,29,03,02,10.40
2015,09,29,03,03,10.40
2015,09,29,03,04,10.40
2015,09,29,03,05,10.40
2015,09,29,03,06,10.30
2015,09,29,03,07,10.30
2015,09,29,03,08,10.30
2015,09,29,03,09,10.30
2015,09,29,03,10,10.30
2015,09,29,03,11,10.30
2015,09,29,03,12,10.30
2015,09,29,03,13,10.30
2015,09,29,03,14,10.20
2015,09,29,03,15,10.20
2015,09,29,03,16,10.20
2015,09,29,03,17,10.20
2015,09,29,03,18,10.20
2015,09,29,03,19,10.10
2015,09,29,03,20,10.10
2015,09,29,03,21,10.10
2015,09,29,03,22,10.10
2015,09,29,03,23,10.10
2015,09,29,03,24,10.10
2015,09,29,03,25,10.10
2015,09,29,03,26,10.10
2015,09,29,03,27,10.10
2015,09,29,03,28,10.10
2015,09,29,03,29,10.10
2015,09,29,03,30,10.10
2015,09,29,03,31,10.10
2015,09,29,03,32,10.10
2015,09,29,03,33,10.10
2015,09,29,03,34,10.10
2015,09,29,03,35,10.10
2015,09,29,03,36,10.10
2015,09,29,03,37,10.10
2015,09,29,03,38,10.20
2015,09,29,03,39,10.20
2015,09,29,03,40,10.20
2015,09,29,03,41,10.10
2015,09,29,03,42,10.10
2015,09,29,03,43,10.10
2015,09,29,03,44,10.10
2015,09,29,03,45,10.10
2015,09,29,03,46,10.10
2015,09,29,03,47,10.00
2015,09,29,03,48,10.00
2015,09,29,03,49,10.00
2015,09,29,03,50,9.90
2015,09,29,03,51,9.90
2015,09,29,03,52,9.90
2015,09,29,03,53,9.90
2015,09,29,03,54,9.80
2015,09,29,03,55,9.80
2015,09,29,03,56,9.80
2015,09,29,03,57,9.80
2015,09,29,03,58,9.80
2015,09,29,03,59,9.80
2015,09,29,04,00,9.80
2015,09,29,04,01,9.80
2015,09,29,04,02,9.80
2015,09,29,04,03,9.80
2015,09,29,04,04,9.80
2015,09,29,04,05,9.80
2015,09,29,04,06,9.80
2015,09,29,04,07,9.80
2015,09,29,04,08,9.80
2015,09,29,04,09,9.70
2015,09,29,04,10,9.70
2015,09,29,04,11,9.80
2015,09,29,04,12,9.70
2015,09,29,04,13,9.70
2015,09,29,04,14,9.70
2015,09,29,04,15,9.70
2015,09,29,04,16,9.70
2015,09,29,04,17,9.70
2015,09,29,04,18,9.70
2015,09,29,04,19,9.70
2015,09,29,04,20,9.60
2015,09,29,04,21,9.60
2015,09,29,04,22,9.60
2015,09,29,04,23,9.60
2015,09,29,04,24,9.60
2015,09,29,04,25,9.60
2015,09,29,04,26,9.60
2015,09,29,04,27,9.70
2015,09,29,04,28,9.70
2015,09,29,04,29,9.70
2015,09,29,04,30,9.70
2015,09,29,04,31,9.70
2015,09,29,04,32,9.70
2015,09,29,04,33,9.70
2015,09,29,04,34,9.70
2015,09,29,04,35,9.70
2015,09,29,04,36,9.70
2015,09,29,04,37,9.70
2015,09,29,04,38,9.70
2015,09,29,04,39,9.70
2015,09,29,04,40,9.60
2015,09,29,04,41,9.60
2015,09,29,04,42,9.60
2015,09,29,04,43,9.60
2015,09,29,04,44,9.50
2015,09,29,04,45,9.50
2015,09,29,04,46,9.40
2015,09,29,04,47,9.40
2015,09,29,04,48,9.40
2015,09,29,04,49,9.30
2015,09,29,04,50,9.30
2015,09,29,04,51,9.30
2015,09,29,04,52,9.30
2015,09,29,04,53,9.30
2015,09,29,04,54,9.30
2015,09,29,04,55,9.30
2015,09,29,04,56,9.30
2015,09,29,04,57,9.30
2015,09,29,04,58,9.30
2015,09,29,04,59,9.20
2015,09,29,05,00,9.20
2015,09,29,05,01,9.20
2015,09,29,05,02,9.20
2015,09,29,05,03,9.20
2015,09,29,05,04,9.20
2015,09,29,05,05,9.20
2015,09,29,05,06,9.20
2015,09,29,05,07,9.20
2015,09,29,05,08,9.20
2015,09,29,05,09,9.20
2015,09,29,05,10,9.20
2015,09,29,05,11,9.20
2015,09,29,05,12,9.20
2015,09,29,05,13,9.20
2015,09,29,05,14,9.10
2015,09,29,05,15,9.10
2015,09,29,05,16,9.10
2015,09,29,05,17,9.10
2015,09,29,05,18,9.10
2015,09,29,05,19,9.10
2015,09,29,05,20,9.10
2015,09,29,05,21,9.10
2015,09,29,05,22,9.20
2015,09,29,05,23,9.20
2015,09,29,05,24,9.20
2015,09,29,05,25,9.20
2015,09,29,05,26,9.20
2015,09,29,05,27,9.20
2015,09,29,05,28,9.20
2015,09,29,05,29,9.20
2015,09,29,05,30,9.30
2015,09,29,05,31,9.30
2015,09,29,05,32,9.30
2015,09,29,05,33,9.30
2015,09,29,05,34,9.30
2015,09,29,05,35,9.30
2015,09,29,05,36,9.30
2015,09,29,05,37,9.30
2015,09,29,05,38,9.40
2015,09,29,05,39,9.40
2015,09,29,05,40,9.40
2015,09,29,05,41,9.40
2015,09,29,05,42,9.40
2015,09,29,05,43,9.40
2015,09,29,05,44,9.40
2015,09,29,05,45,9.40
2015,09,29,05,46,9.40
2015,09,29,05,47,9.40
2015,09,29,05,48,9.40
2015,09,29,05,49,9.40
2015,09,29,05,50,9.40
2015,09,29,05,51,9.40
2015,09,29,05,52,9.40
2015,09,29,05,53,9.40
2015,09,29,05,54,9.40
2015,09,29,05,55,9.40
2015,09,29,05,56,9.40
2015,09,29,05,57,9.40
2015,09,29,05,58,9.40
2015,09,29,05,59,9.40
2015,09,29,06,00,9.40
2015,09,29,06,01,9.40
2015,09,29,06,02,9.40
2015,09,29,06,03,9.40
2015,09,29,06,04,9.40
2015,09,29,06,05,9.40
2015,09,29,06,06,9.40
2015,09,29,06,07,9.40
2015,09,29,06,08,9.40
2015,09,29,06,09,9.40
2015,09,29,06,10,9.30
2015,09,29,06,11,9.40
2015,09,29,06,12,9.30
2015,09,29,06,13,9.30
2015,09,29,06,14,9.40
2015,09,29,06,15,9.30
2015,09,29,06,16,9.30
2015,09,29,06,17,9.30
2015,09,29,06,18,9.30
2015,09,29,06,19,9.30
2015,09,29,06,20,9.30
2015,09,29,06,21,9.30
2015,09,29,06,22,9.30
2015,09,29,06,23,9.30
2015,09,29,06,24,9.30
2015,09,29,06,25,9.30
2015,09,29,06,26,9.30
2015,09,29,06,27,9.30
2015,09,29,06,28,9.30
2015,09,29,06,29,9.20
2015,09,29,06,30,9.20
2015,09,29,06,31,9.20
2015,09,29,06,32,9.20
2015,09,29,06,33,9.20
2015,09,29,06,34,9.20
2015,09,29,06,35,9.20
2015,09,29,06,36,9.20
2015,09,29,06,37,9.10
2015,09,29,06,38,9.10
2015,09,29,06,39,9.10
2015,09,29,06,40,9.10
2015,09,29,06,41,9.00
2015,09,29,06,42,9.00
2015,09,29,06,43,9.00
2015,09,29,06,44,8.90
2015,09,29,06,45,8.90
2015,09,29,06,46,8.90
2015,09,29,06,47,8.90
2015,09,29,06,48,8.90
2015,09,29,06,49,8.80
2015,09,29,06,50,8.80
2015,09,29,06,51,8.80
2015,09,29,06,52,8.80
2015,09,29,06,53,8.80
2015,09,29,06,54,8.80
2015,09,29,06,55,8.90
2015,09,29,06,56,8.90
2015,09,29,06,57,8.90
2015,09,29,06,58,8.90
2015,09,29,06,59,8.90
2015,09,29,07,00,9.00
2015,09,29,07,01,9.00
2015,09,29,07,02,9.00
2015,09,29,07,03,9.00
2015,09,29,07,04,9.00
2015,09,29,07,05,9.00
2015,09,29,07,06,9.00
2015,09,29,07,07,8.90
2015,09,29,07,08,8.90
2015,09,29,07,09,8.90
2015,09,29,07,10,9.00
2015,09,29,07,11,9.00
2015,09,29,07,12,9.00
2015,09,29,07,13,9.10
2015,09,29,07,14,9.10
2015,09,29,07,15,9.10
2015,09,29,07,16,9.10
2015,09,29,07,17,9.10
2015,09,29,07,18,9.10
2015,09,29,07,19,9.00
2015,09,29,07,20,9.00
2015,09,29,07,21,9.00
2015,09,29,07,22,9.00
2015,09,29,07,23,9.00
2015,09,29,07,24,9.00
2015,09,29,07,25,9.00
2015,09,29,07,26,9.00
2015,09,29,07,27,9.00
2015,09,29,07,28,9.00
2015,09,29,07,29,9.10
2015,09,29,07,30,9.10
2015,09,29,07,31,9.10
2015,09,29,07,32,9.10
2015,09,29,07,33,9.10
2015,09,29,07,34,9.10
2015,09,29,07,35,9.10
2015,09,29,07,36,9.10
2015,09,29,07,37,9.10
2015,09,29,07,38,9.10
2015,09,29,07,39,9.10
2015,09,29,07,40,9.10
2015,09,29,07,41,9.20
2015,09,29,07,42,9.20
2015,09,29,07,43,9.20
2015,09,29,07,44,9.20
2015,09,29,07,45,9.20
2015,09,29,07,46,9.20
2015,09,29,07,47,9.20
2015,09,29,07,48,9.30
2015,09,29,07,49,9.30
2015,09,29,07,50,9.30
2015,09,29,07,51,9.30
2015,09,29,07,52,9.30
2015,09,29,07,53,9.30
2015,09,29,07,54,9.30
2015,09,29,07,55,9.30
2015,09,29,07,56,9.30
2015,09,29,07,57,9.40
2015,09,29,07,58,9.40
2015,09,29,07,59,9.40
2015,09,29,08,00,9.40
2015,09,29,08,01,9.40
2015,09,29,08,02,9.40
2015,09,29,08,03,9.40
2015,09,29,08,04,9.50
2015,09,29,08,05,9.50
2015,09,29,08,06,9.50
2015,09,29,08,07,9.60
2015,09,29,08,08,9.60
2015,09,29,08,09,9.60
2015,09,29,08,10,9.70
2015,09,29,08,11,9.70
2015,09,29,08,12,9.70
2015,09,29,08,13,9.80
2015,09,29,08,14,9.80
2015,09,29,08,15,9.80
2015,09,29,08,16,9.90
2015,09,29,08,17,9.90
2015,09,29,08,18,9.90
2015,09,29,08,19,10.00
2015,09,29,08,20,10.00
2015,09,29,08,21,10.10
2015,09,29,08,22,10.10
2015,09,29,08,23,10.20
2015,09,29,08,24,10.20
2015,09,29,08,25,10.20
2015,09,29,08,26,10.30
2015,09,29,08,27,10.30
2015,09,29,08,28,10.40
2015,09,29,08,29,10.40
2015,09,29,08,30,10.50
2015,09,29,08,31,10.50
2015,09,29,08,32,10.60
2015,09,29,08,33,10.60
2015,09,29,08,34,10.60
2015,09,29,08,35,10.60
2015,09,29,08,36,10.60
2015,09,29,08,37,10.60
2015,09,29,08,38,10.70
2015,09,29,08,39,10.70
2015,09,29,08,40,10.70
2015,09,29,08,41,10.70
2015,09,29,08,42,10.70
2015,09,29,08,43,10.70
2015,09,29,08,44,10.70
2015,09,29,08,45,10.80
2015,09,29,08,46,10.80
2015,09,29,08,47,10.80
2015,09,29,08,48,10.90
2015,09,29,08,49,10.90
2015,09,29,08,50,11.00
2015,09,29,08,51,11.00
2015,09,29,08,52,11.10
2015,09,29,08,53,11.10
2015,09,29,08,54,11.10
2015,09,29,08,55,11.10
2015,09,29,08,56,11.20
2015,09,29,08,57,11.30
2015,09,29,08,58,11.30
2015,09,29,08,59,11.40
2015,09,29,09,00,11.40
2015,09,29,09,01,11.40
2015,09,29,09,02,11.50
2015,09,29,09,03,11.50
2015,09,29,09,04,11.50
2015,09,29,09,05,11.60
2015,09,29,09,06,11.60
2015,09,29,09,07,11.60
2015,09,29,09,08,11.70
2015,09,29,09,09,11.70
2015,09,29,09,10,11.70
2015,09,29,09,11,11.80
2015,09,29,09,12,11.70
2015,09,29,09,13,11.80
2015,09,29,09,14,11.80
2015,09,29,09,15,11.80
2015,09,29,09,16,11.80
2015,09,29,09,17,11.80
2015,09,29,09,18,11.80
2015,09,29,09,19,11.90
2015,09,29,09,20,11.90
2015,09,29,09,21,11.90
2015,09,29,09,22,11.90
2015,09,29,09,23,12.00
2015,09,29,09,24,12.00
2015,09,29,09,25,12.00
2015,09,29,09,26,12.00
2015,09,29,09,27,12.10
2015,09,29,09,28,12.10
2015,09,29,09,29,12.10
2015,09,29,09,30,12.10
2015,09,29,09,31,12.10
2015,09,29,09,32,12.20
2015,09,29,09,33,12.20
2015,09,29,09,34,12.20
2015,09,29,09,35,12.20
2015,09,29,09,36,12.20
2015,09,29,09,37,12.30
2015,09,29,09,38,12.30
2015,09,29,09,39,12.30
2015,09,29,09,40,12.40
2015,09,29,09,41,12.40
2015,09,29,09,42,12.40
2015,09,29,09,43,12.50
2015,09,29,09,44,12.50
2015,09,29,09,45,12.60
2015,09,29,09,46,12.60
2015,09,29,09,47,12.60
2015,09,29,09,48,12.70
2015,09,29,09,49,12.70
2015,09,29,09,50,12.70
2015,09,29,09,51,12.70
2015,09,29,09,52,12.80
2015,09,29,09,53,12.80
2015,09,29,09,54,12.80
2015,09,29,09,55,12.80
2015,09,29,09,56,12.90
2015,09,29,09,57,12.90
2015,09,29,09,58,12.90
2015,09,29,09,59,12.90
2015,09,29,10,00,12.90
2015,09,29,10,01,13.00
2015,09,29,10,02,13.00
2015,09,29,10,03,13.10
2015,09,29,10,04,13.10
2015,09,29,10,05,13.10
2015,09,29,10,06,13.10
2015,09,29,10,07,13.20
2015,09,29,10,08,13.20
2015,09,29,10,09,13.30
2015,09,29,10,10,13.30
2015,09,29,10,11,13.40
2015,09,29,10,12,13.40
2015,09,29,10,13,13.40
2015,09,29,10,14,13.50
2015,09,29,10,15,13.50
2015,09,29,10,16,13.50
2015,09,29,10,17,13.50
2015,09,29,10,18,13.50
2015,09,29,10,19,13.60
2015,09,29,10,20,13.60
2015,09,29,10,21,13.60
2015,09,29,10,22,13.60
2015,09,29,10,23,13.60
2015,09,29,10,24,13.60
2015,09,29,10,25,13.70
2015,09,29,10,26,13.70
2015,09,29,10,27,13.70
2015,09,29,10,28,13.70
2015,09,29,10,29,13.80
2015,09,29,10,30,13.80
2015,09,29,10,31,13.90
2015,09,29,10,32,13.90
2015,09,29,10,33,13.90
2015,09,29,10,34,13.90
2015,09,29,10,35,13.90
2015,09,29,10,36,13.90
2015,09,29,10,37,13.90
2015,09,29,10,38,13.90
2015,09,29,10,39,13.90
2015,09,29,10,40,13.90
2015,09,29,10,41,13.90
2015,09,29,10,42,13.90
2015,09,29,10,43,13.90
2015,09,29,10,44,13.90
2015,09,29,10,45,13.90
2015,09,29,10,46,13.90
2015,09,29,10,47,14.00
2015,09,29,10,48,14.10
2015,09,29,10,49,14.10
2015,09,29,10,50,14.20
2015,09,29,10,51,14.20
2015,09,29,10,52,14.20
2015,09,29,10,53,14.20
2015,09,29,10,54,14.20
2015,09,29,10,55,14.20
2015,09,29,10,56,14.20
2015,09,29,10,57,14.20
2015,09,29,10,58,14.20
2015,09,29,10,59,14.20
2015,09,29,11,00,14.20
2015,09,29,11,01,14.20
2015,09,29,11,02,14.20
2015,09,29,11,03,14.30
2015,09,29,11,04,14.30
2015,09,29,11,05,14.30
2015,09,29,11,06,14.30
2015,09,29,11,07,14.30
2015,09,29,11,08,14.40
2015,09,29,11,09,14.40
2015,09,29,11,10,14.40
2015,09,29,11,11,14.40
2015,09,29,11,12,14.40
2015,09,29,11,13,14.40
2015,09,29,11,14,14.40
2015,09,29,11,15,14.40
2015,09,29,11,16,14.50
2015,09,29,11,17,14.60
2015,09,29,11,18,14.60
2015,09,29,11,19,14.70
2015,09,29,11,20,14.70
2015,09,29,11,21,14.70
2015,09,29,11,22,14.70
2015,09,29,11,23,14.70
2015,09,29,11,24,14.70
2015,09,29,11,25,14.70
2015,09,29,11,26,14.70
2015,09,29,11,27,14.70
2015,09,29,11,28,14.70
2015,09,29,11,29,14.80
2015,09,29,11,30,14.80
2015,09,29,11,31,14.80
2015,09,29,11,32,14.90
2015,09,29,11,33,14.90
2015,09,29,11,34,14.90
2015,09,29,11,35,15.00
2015,09,29,11,36,15.00
2015,09,29,11,37,15.10
2015,09,29,11,38,15.10
2015,09,29,11,39,15.20
2015,09,29,11,40,15.30
2015,09,29,11,41,15.30
2015,09,29,11,42,15.30
2015,09,29,11,43,15.40
2015,09,29,11,44,15.50
2015,09,29,11,45,15.50
2015,09,29,11,46,15.60
2015,09,29,11,47,15.60
2015,09,29,11,48,15.60
2015,09,29,11,49,15.70
2015,09,29,11,50,15.60
2015,09,29,11,51,15.60
2015,09,29,11,52,15.60
2015,09,29,11,53,15.70
2015,09,29,11,54,15.70
2015,09,29,11,55,15.80
2015,09,29,11,56,15.80
2015,09,29,11,57,15.80
2015,09,29,11,58,15.90
2015,09,29,11,59,15.90
2015,09,29,12,00,15.90
2015,09,29,12,01,15.90
2015,09,29,12,02,16.00
2015,09,29,12,03,16.10
2015,09,29,12,04,16.10
2015,09,29,12,05,16.10
2015,09,29,12,06,16.10
2015,09,29,12,07,16.10
2015,09,29,12,08,16.10
2015,09,29,12,09,16.10
2015,09,29,12,10,16.10
2015,09,29,12,11,16.10
2015,09,29,12,12,16.10
2015,09,29,12,13,16.00
2015,09,29,12,14,16.00
2015,09,29,12,15,16.00
2015,09,29,12,16,16.00
2015,09,29,12,17,15.90
2015,09,29,12,18,16.00
2015,09,29,12,19,16.00
2015,09,29,12,20,16.00
2015,09,29,12,21,16.00
2015,09,29,12,22,16.00
2015,09,29,12,23,16.10
2015,09,29,12,24,16.20
2015,09,29,12,25,16.20
2015,09,29,12,26,16.30
2015,09,29,12,27,16.30
2015,09,29,12,28,16.30
2015,09,29,12,29,16.40
2015,09,29,12,30,16.40
2015,09,29,12,31,16.40
2015,09,29,12,32,16.50
2015,09,29,12,33,16.50
2015,09,29,12,34,16.60
2015,09,29,12,35,16.60
2015,09,29,12,36,16.60
2015,09,29,12,37,16.70
2015,09,29,12,38,16.70
2015,09,29,12,39,16.70
2015,09,29,12,40,16.80
2015,09,29,12,41,16.90
2015,09,29,12,42,17.00
2015,09,29,12,43,17.10
2015,09,29,12,44,17.10
2015,09,29,12,45,17.20
2015,09,29,12,46,17.20
2015,09,29,12,47,17.20
2015,09,29,12,48,17.20
2015,09,29,12,49,17.20
2015,09,29,12,50,17.20
2015,09,29,12,51,17.30
2015,09,29,12,52,17.30
2015,09,29,12,53,17.30
2015,09,29,12,54,17.40
2015,09,29,12,55,17.50
2015,09,29,12,56,17.50
2015,09,29,12,57,17.50
2015,09,29,12,58,17.50
2015,09,29,12,59,17.50
2015,09,29,13,00,17.50
2015,09,29,13,01,17.60
2015,09,29,13,02,17.60
2015,09,29,13,03,17.70
2015,09,29,13,04,17.70
2015,09,29,13,05,17.80
2015,09,29,13,06,17.80
2015,09,29,13,07,17.80
2015,09,29,13,08,17.80
2015,09,29,13,09,17.90
2015,09,29,13,10,17.90
2015,09,29,13,11,17.90
2015,09,29,13,12,17.90
2015,09,29,13,13,17.90
2015,09,29,13,14,17.80
2015,09,29,13,15,17.80
2015,09,29,13,16,17.80
2015,09,29,13,17,17.80
2015,09,29,13,18,17.80
2015,09,29,13,19,17.80
2015,09,29,13,20,17.80
2015,09,29,13,21,17.80
2015,09,29,13,22,17.80
2015,09,29,13,23,17.80
2015,09,29,14,14,19.80
2015,09,29,14,15,19.90
2015,09,29,14,16,19.90
2015,09,29,14,17,19.90
2015,09,29,14,18,19.90
2015,09,29,14,19,19.90
2015,09,29,14,20,19.90
2015,09,29,14,21,19.80
2015,09,29,14,22,19.70
2015,09,29,14,23,19.70
2015,09,29,14,24,19.70
2015,09,29,14,25,19.80
2015,09,29,14,26,19.80
2015,09,29,14,27,19.80
2015,09,29,14,28,20.00
2015,09,29,14,29,20.10
2015,09,29,14,30,20.20
2015,09,29,14,31,20.30
2015,09,29,14,32,20.50
2015,09,29,14,33,20.60
2015,09,29,14,34,20.70
2015,09,29,14,35,20.70
2015,09,29,14,36,20.80
2015,09,29,14,37,20.90
2015,09,29,14,38,20.90
2015,09,29,14,39,20.80
2015,09,29,14,40,20.70
2015,09,29,14,41,20.70
2015,09,29,14,42,20.70
2015,09,29,14,43,20.70
2015,09,29,14,44,20.60
2015,09,29,14,45,20.60
2015,09,29,14,46,20.70
2015,09,29,14,47,20.80
2015,09,29,14,48,20.80
2015,09,29,14,49,20.80
2015,09,29,14,50,20.70
2015,09,29,14,51,20.70
2015,09,29,14,52,20.70
2015,09,29,14,53,20.60
2015,09,29,14,54,20.60
2015,09,29,14,55,20.50
2015,09,29,14,56,20.50
2015,09,29,14,57,20.50
2015,09,29,14,58,20.60
2015,09,29,14,59,20.70
2015,09,29,15,00,20.70
2015,09,29,15,01,20.80
2015,09,29,15,02,20.90
2015,09,29,15,03,20.90
2015,09,29,15,04,20.90
2015,09,29,15,05,21.00
2015,09,29,15,06,21.00
2015,09,29,15,07,21.10
2015,09,29,15,08,21.10
2015,09,29,15,09,21.10
2015,09,29,15,10,21.10
2015,09,29,15,11,21.10
2015,09,29,15,12,21.10
2015,09,29,15,13,21.10
2015,09,29,15,14,21.20
2015,09,29,15,15,21.20
2015,09,29,15,16,21.20
2015,09,29,15,17,21.10
2015,09,29,15,18,21.10
2015,09,29,15,19,21.00
2015,09,29,15,20,21.00
2015,09,29,15,21,20.90
2015,09,29,15,22,20.90
2015,09,29,15,23,20.80
2015,09,29,15,24,20.80
2015,09,29,15,25,20.80
2015,09,29,15,26,20.80
2015,09,29,15,27,20.70
2015,09,29,15,28,20.70
2015,09,29,15,29,20.80
2015,09,29,15,30,20.80
2015,09,29,15,31,20.80
2015,09,29,15,32,20.70
2015,09,29,15,33,20.70
2015,09,29,15,34,20.70
2015,09,29,15,35,20.60
2015,09,29,15,36,20.60
2015,09,29,15,37,20.60
2015,09,29,15,38,20.60
2015,09,29,15,39,20.60
2015,09,29,15,40,20.60
2015,09,29,15,41,20.60
2015,09,29,15,42,20.60
2015,09,29,15,43,20.60
2015,09,29,15,44,20.60
2015,09,29,15,45,20.60
2015,09,29,15,46,20.50
2015,09,29,15,47,20.50
2015,09,29,15,48,20.50
2015,09,29,15,49,20.40
2015,09,29,15,50,20.40
2015,09,29,15,51,20.40
2015,09,29,15,52,20.50
2015,09,29,15,53,20.50
2015,09,29,15,54,20.60
2015,09,29,15,55,20.70
2015,09,29,15,56,20.80
2015,09,29,15,57,20.80
2015,09,29,15,58,20.90
2015,09,29,15,59,20.90
2015,09,29,16,00,20.90
2015,09,29,16,01,20.90
2015,09,29,16,02,20.90
2015,09,29,16,03,20.90
2015,09,29,16,04,20.90
2015,09,29,16,05,20.90
2015,09,29,16,06,20.90
2015,09,29,16,07,21.10
2015,09,29,16,08,21.20
2015,09,29,16,09,21.20
2015,09,29,16,10,21.30
2015,09,29,16,11,21.30
2015,09,29,16,12,21.30
2015,09,29,16,13,21.40
2015,09,29,16,14,21.50
2015,09,29,16,15,21.60
2015,09,29,16,16,21.70
2015,09,29,16,17,21.80
2015,09,29,16,18,21.90
2015,09,29,16,19,21.90
2015,09,29,16,20,22.00
2015,09,29,16,21,22.00
2015,09,29,16,22,22.00
2015,09,29,16,23,22.00
2015,09,29,16,24,22.00
2015,09,29,16,25,21.90
2015,09,29,16,26,21.90
2015,09,29,16,27,21.90
2015,09,29,16,28,21.90
2015,09,29,16,29,21.90
2015,09,29,16,30,21.90
2015,09,29,16,31,21.80
2015,09,29,16,32,21.80
2015,09,29,16,33,21.60
2015,09,29,16,34,21.50
2015,09,29,16,35,21.40
2015,09,29,16,36,21.30
2015,09,29,16,37,21.20
2015,09,29,16,38,21.20
2015,09,29,16,39,21.20
2015,09,29,16,40,21.10
2015,09,29,16,41,21.10
2015,09,29,16,42,21.10
2015,09,29,16,43,21.10
2015,09,29,16,44,21.20
2015,09,29,16,45,21.20
2015,09,29,16,46,21.30
2015,09,29,16,47,21.30
2015,09,29,16,48,21.30
2015,09,29,16,49,21.30
2015,09,29,16,50,21.30
2015,09,29,16,51,21.40
2015,09,29,16,52,21.40
2015,09,29,16,53,21.40
2015,09,29,16,54,21.40
2015,09,29,16,55,21.50
2015,09,29,16,56,21.60
2015,09,29,16,57,21.60
2015,09,29,16,58,21.70
2015,09,29,16,59,21.70
2015,09,29,17,00,21.70
2015,09,29,17,01,21.70
2015,09,29,17,02,21.70
2015,09,29,17,03,21.70
2015,09,29,17,04,21.70
2015,09,29,17,05,21.80
2015,09,29,17,06,21.80
2015,09,29,17,07,21.80
2015,09,29,17,08,21.80
2015,09,29,17,09,21.70
2015,09,29,17,10,21.70
2015,09,29,17,11,21.60
2015,09,29,17,12,21.60
2015,09,29,17,13,21.50
2015,09,29,17,14,21.40
2015,09,29,17,15,21.40
2015,09,29,17,16,21.40
2015,09,29,17,17,21.40
2015,09,29,17,18,21.40
2015,09,29,17,19,21.40
2015,09,29,17,20,21.40
2015,09,29,17,21,21.40
2015,09,29,17,22,21.40
2015,09,29,17,23,21.40
2015,09,29,17,24,21.40
2015,09,29,17,25,21.40
2015,09,29,17,26,21.40
2015,09,29,17,27,21.40
2015,09,29,17,28,21.40
2015,09,29,17,29,21.40
2015,09,29,17,30,21.40
2015,09,29,17,31,21.40
2015,09,29,17,32,21.40
2015,09,29,17,33,21.40
2015,09,29,17,34,21.50
2015,09,29,17,35,21.50
2015,09,29,17,36,21.50
2015,09,29,17,37,21.50
2015,09,29,17,38,21.50
2015,09,29,17,39,21.50
2015,09,29,17,40,21.50
2015,09,29,17,41,21.40
2015,09,29,17,42,21.50
2015,09,29,17,43,21.50
2015,09,29,17,44,21.50
2015,09,29,17,45,21.60
2015,09,29,17,46,21.60
2015,09,29,17,47,21.50
2015,09,29,17,48,21.50
2015,09,29,17,49,21.40
2015,09,29,17,50,21.30
2015,09,29,17,51,21.20
2015,09,29,17,52,21.20
2015,09,29,17,53,21.10
2015,09,29,17,54,21.00
2015,09,29,17,55,20.90
2015,09,29,17,56,20.80
2015,09,29,17,57,20.70
2015,09,29,17,58,20.60
2015,09,29,17,59,20.50
2015,09,29,18,00,20.40
2015,09,29,18,01,20.30
2015,09,29,18,02,20.20
2015,09,29,18,03,20.10
2015,09,29,18,04,20.10
2015,09,29,18,05,20.00
2015,09,29,18,06,19.90
2015,09,29,18,07,19.80
2015,09,29,18,08,19.80
2015,09,29,18,09,19.80
2015,09,29,18,10,19.80
2015,09,29,18,11,19.70
2015,09,29,18,12,19.70
2015,09,29,18,13,19.60
2015,09,29,18,14,19.60
2015,09,29,18,15,19.50
2015,09,29,18,16,19.50
2015,09,29,18,17,19.40
2015,09,29,18,18,19.30
2015,09,29,18,19,19.20
2015,09,29,18,20,19.10
2015,09,29,18,21,19.00